Baltimore Martin, MD

4:26 AM EDT on March 28, 2017 (GMT -0400)
Martin State

Weather History for KMTN - April, 2014

Change the Weather History Date:

Wednesday, April 16, 2014

  Actual Average Record
Temperature  
Mean Temperature 40 °F -  
Max Temperature 48 °F 61 °F 86 °F (2003)
Min Temperature 32 °F 43 °F 32 °F (2014)
Degree Days  
Heating Degree Days 25    
Moisture  
Dew Point 22 °F    
Average Humidity 56    
Maximum Humidity 81    
Minimum Humidity 32    
Precipitation  
Precipitation 0.00 in - - ()
Sea Level Pressure  
Sea Level Pressure 30.32 in    
Wind  
Wind Speed 13 mph (NW)    
Max Wind Speed 22 mph    
Max Gust Speed 31 mph    
Visibility 10 miles    
Events      
Averages and records for this station are not official NWS values.
T = Trace of Precipitation, MM = Missing Value Source: NWS Daily Summary

Daily Weather History Graph

Daily Weather History Graph

Search for Another Location

Airport or City:

Trip Planner

Search our weather history database for the weather conditions in past years. The results will help you decide how hot, cold, wet, or windy it might be!

Date:

Astronomy

Apr. 16, 2014 Rise Set
Actual Time 6:27 AM EDT 7:44 PM EDT
Civil Twilight 5:59 AM EDT 8:12 PM EDT
Nautical Twilight 5:26 AM EDT 8:45 PM EDT
Astronomical Twilight 4:51 AM EDT 9:20 PM EDT
Moon 9:25 PM EDT (4/16) 7:13 AM EDT (4/16)
Length of Visible Light 14h 12m
Length of Day
13h 17m
Full, 98% of the Moon is Illuminated
Apr 16
Full
Apr 22
Last Quarter
Apr 29
New
May 6
First Quarter
May 14
Full

Hourly Weather History & Observations

Time (EDT) Temp. Windchill Dew Point Humidity Pressure Visibility Wind Dir Wind Speed Gust Speed Precip Events Conditions
12:12 AM 37.4 °F 29.8 °F 32.0 °F 81% 30.03 in 10.0 mi WNW 11.5 mph - N/A   Clear
12:33 AM 37.4 °F 27.5 °F 30.2 °F 75% 30.05 in 10.0 mi WNW 18.4 mph 24.2 mph N/A   Clear
12:51 AM 37.4 °F 28.5 °F 28.4 °F 70% 30.07 in 10.0 mi WNW 15.0 mph 28.8 mph N/A   Clear
1:12 AM 37.4 °F 26.6 °F 26.6 °F 65% 30.06 in 10.0 mi WNW 21.9 mph 27.6 mph N/A   Clear
1:33 AM 35.6 °F 25.9 °F 23.0 °F 60% 30.10 in 10.0 mi WNW 16.1 mph 28.8 mph N/A   Clear
1:51 AM 35.6 °F 25.5 °F 23.0 °F 60% 30.08 in 10.0 mi WNW 17.3 mph 31.1 mph N/A   Clear
2:12 AM 35.6 °F 24.8 °F 21.2 °F 56% 30.10 in 10.0 mi WNW 19.6 mph 26.5 mph N/A   Clear
2:33 AM 35.6 °F 25.5 °F 21.2 °F 56% 30.10 in 10.0 mi WNW 17.3 mph 27.6 mph N/A   Clear
2:51 AM 33.8 °F 23.2 °F 23.0 °F 65% 30.12 in 10.0 mi WNW 17.3 mph 24.2 mph N/A   Scattered Clouds
3:12 AM 33.8 °F 22.5 °F 21.2 °F 60% 30.13 in 10.0 mi WNW 19.6 mph 27.6 mph N/A   Scattered Clouds
3:33 AM 33.8 °F 21.9 °F 21.2 °F 60% 30.16 in 10.0 mi WNW 21.9 mph 27.6 mph N/A   Clear
3:51 AM 33.8 °F 23.5 °F 21.2 °F 60% 30.18 in 10.0 mi WNW 16.1 mph 20.7 mph N/A   Clear
4:12 AM 33.8 °F 24.8 °F 19.4 °F 56% 30.20 in 10.0 mi WNW 12.7 mph 19.6 mph N/A   Clear
4:33 AM 32.0 °F 23.6 °F 19.4 °F 60% 30.20 in 10.0 mi WNW 10.4 mph 18.4 mph N/A   Clear
4:51 AM 32.0 °F 21.6 °F 19.4 °F 60% 30.23 in 10.0 mi WNW 15.0 mph 20.7 mph N/A   Clear
5:12 AM 32.0 °F 22.5 °F 17.6 °F 55% 30.23 in 10.0 mi NW 12.7 mph 18.4 mph N/A   Clear
5:30 AM 32.0 °F 24.8 °F 17.6 °F 55% 30.25 in 10.0 mi NW 8.1 mph 17.3 mph N/A   Clear
5:45 AM 33.8 °F 25.8 °F 17.6 °F 52% 30.26 in 10.0 mi NW 10.4 mph 18.4 mph N/A   Clear
6:45 AM 33.8 °F 27.0 °F 15.8 °F 48% 30.30 in 10.0 mi NW 8.1 mph - N/A   Clear
7:45 AM 33.8 °F 24.3 °F 17.6 °F 52% 30.34 in 10.0 mi NW 13.8 mph - N/A   Clear
8:45 AM 35.6 °F 26.6 °F 17.6 °F 48% 30.38 in 10.0 mi NW 13.8 mph 23.0 mph N/A   Clear
9:45 AM 37.4 °F 28.2 °F 15.8 °F 41% 30.43 in 10.0 mi NW 16.1 mph - N/A   Partly Cloudy
10:55 AM 39.2 °F 30.5 °F 14.0 °F 36% 30.46 in 10.0 mi NNW 16.1 mph - N/A   Partly Cloudy
11:50 AM 42.8 °F 35.1 °F 17.6 °F 36% 30.48 in 10.0 mi West 16.1 mph - N/A   Partly Cloudy
12:45 PM 44.6 °F 38.1 °F 19.4 °F 37% 30.47 in 10.0 mi NW 13.8 mph - N/A   Partly Cloudy
1:45 PM 44.6 °F 37.4 °F 19.4 °F 37% 30.47 in 10.0 mi NW 16.1 mph - N/A   Clear
2:45 PM 46.4 °F 41.9 °F 21.2 °F 37% 30.46 in 10.0 mi NNW 9.2 mph - N/A   Clear
3:45 PM - - - N/A% 30.46 in 10.0 mi North 9.2 mph - N/A   Clear
4:45 PM - - - N/A% 30.45 in 10.0 mi North 5.8 mph - N/A   Clear
5:45 PM 48.2 °F - 19.4 °F 32% 30.46 in 10.0 mi NW 8.1 mph - N/A   Clear
8:45 PM 44.6 °F 43.1 °F 24.8 °F 46% 30.51 in 10.0 mi NNW 3.5 mph - N/A   Partly Cloudy
9:45 PM 39.2 °F 35.9 °F 26.6 °F 61% 30.54 in 10.0 mi NW 4.6 mph - N/A   Partly Cloudy
10:15 PM 39.2 °F - 28.4 °F 65% 30.54 in 10.0 mi Calm Calm - N/A   Clear
10:33 PM 39.2 °F - 28.4 °F 65% 30.54 in 10.0 mi Calm Calm - N/A   Clear
10:54 PM 39.2 °F - 28.4 °F 65% 30.54 in 10.0 mi Calm Calm - N/A   Clear
11:15 PM 41.0 °F - 26.6 °F 57% 30.55 in 10.0 mi Calm Calm - N/A   Clear
11:33 PM 39.2 °F - 28.4 °F 65% 30.56 in 10.0 mi Calm Calm - N/A   Clear
11:54 PM 39.2 °F - 28.4 °F 65% 30.56 in 10.0 mi Calm Calm - N/A   Clear